View from above orbital plane
|
View from above satellite
|
Ground track
|
The orbit data is extracted from the following two-line orbital elements,
1 43173U 18011E 22222.11130882 .00011821 00000-0 27195-3 0 9993
2 43173 34.9887 147.9141 0121181 308.1143 50.8702 15.34334978253368
Epoch (UTC): | 10 August 2022 02:40:17 |
Eccentricity: | 0.0121181 |
inclination: | 34.9887° |
perigee height: | 380 km |
apogee height: | 546 km |
right ascension of ascending node: | 147.9141° |
argument of perigee: | 308.1143° |
revolutions per day: | 15.34334978 |
mean anomaly at epoch: | 50.8702° |
orbit number at epoch: | 25336 |
The dashed part of the orbit path shows where the satellite is in the earth's shadow,
|
|